Powrót do katalogu

SBIRS GEO 6

USA 336

AktywnyMilitariaGEO
NORAD 53355·PAYLOAD·🇺🇸 United States

Wystrzelony Aug 4, 2022 z Cape Canaveral Space Force Station

Loading…

TLE

ŚwieżeSource: Space-Track

Epoka: Sep 14, 2026, 21:18 UTC

1 53355U 22092A   26257.88776726 -.00000299  00000-0  00000-0 0  9990
2 53355   3.1158 319.0781 0001812 211.1634 282.2099  1.00272047 15135

Śledź SBIRS GEO 6 w czasie rzeczywistym z AllMySat

Download on the App Store